Location: Lecco
(45.8566°N, 9.3977°E)
Time: 06:25:45
(UTC+02:00)

Altair - Pass Details

Date: 14 August 2020
Orbit: 1501 x 1682 km, 47.2° (Epoch: 25 September)

Event Time Altitude Azimuth Distance (km) Brightness Sun altitude
Rises 03:20:00 0° 234° (SW) 4,830 - -24.7°
Reaches altitude 10° 03:23:10 10° 232° (SW) 3,822 - -24.4°
Exits shadow 03:28:36 38° 222° (SW) 2,247 7.8 -23.9°
Maximum altitude 03:32:44 69° 152° (SSE) 1,659 7.5 -23.5°
Drops below altitude 10° 03:41:59 10° 72° (ENE) 3,696 10.2 -22.6°
Sets 03:45:00 0° 71° (ENE) 4,664 10.9 -22.3°
